User: anonymous   Login
Location: Unspecified
(33.6682°S, 0.0000°E)
Time: 07:16:44
(UTC+00:00)
Language:

Courier 1B - Orbit

View from above orbital plane
View from above orbital plane
View from above satellite
View from above satellite

Ground track
Ground track

The orbit data is extracted from the following two-line orbital elements,

1    58U 60013A   20293.84869868 +.00000108 +00000-0 +37925-4 0  9995
2    58 028.3262 183.5412 0164899 019.1510 341.5147 13.46323613955923
Epoch (UTC): 19 October 2020 20:22:07
Eccentricity: 0.0164899
inclination: 28.3262°
perigee height: 963 km
apogee height: 1209 km
right ascension of ascending node: 183.5412°
argument of perigee: 19.1510°
revolutions per day: 13.46323613
mean anomaly at epoch: 341.5147°
orbit number at epoch: 95592

The dashed part of the orbit path shows where the satellite is in the earth's shadow,  

DLR